Regional Weather Roundup
Issued by NWS Newport/Morehead, NC

Current Version | Previous Version | Text Only | Print | Product List | Glossary Off
Versions: 1 2 3 4 5 6 7 8 9 10 11 12 13 14 15 16 17 18 19 20 21 22 23 24 25 26 27 28 29 30 31 32 33 34 35 36 37 38 39 40 41 42 43 44 45 46 47 48 49 50
000 ASUS42 KMHX 272313 RWRMHX WEATHER ROUNDUP FOR EASTERN NORTH CAROLINA NATIONAL WEATHER SERVICE NEWPORT/MOREHEAD CITY NC 700 PM EDT THU APR 27 2017 NOTE: "FAIR" INDICATES FEW OR NO CLOUDS BELOW 12,000 FEET WITH NO SIGNIFICANT WEATHER AND/OR OBSTRUCTIONS TO VISIBILITY NCZ015>017-031-032-045>047-102-103-280000- NORTH COAST CITY SKY/WX TMP DP RH WIND PRES REMARKS EDENTON CLEAR 79 61 54 S16G22 29.88S ELIZABETH CITY PTCLDY 78 61 55 S13 29.88R KITTY HAWK CLEAR 75 61 60 S7G16 29.89R MANTEO CLEAR 76 62 62 SW16 29.91R $$ NCZ045>047-081-094-103-104-280000- CENTRAL COAST CITY SKY/WX TMP DP RH WIND PRES REMARKS FRISCO PTCLDY 75 68 78 SW7 29.94R HAZE $$ NCZ095-097-098-100-101-280000- SOUTHERN COAST CITY SKY/WX TMP DP RH WIND PRES REMARKS BEAUFORT PTCLDY 73 67 81 SW13 29.94S CEDAR ISLAND NOT AVBL JACKSONVILLE PTCLDY 77 63 61 S9 29.92R PINEY ISLAND NOT AVBL WILMINGTON CLOUDY 76 64 66 S12 29.92F $$ NCZ011>013-027>030-043-044-078>080-089-090>093-098-280000- COASTAL PLAIN CITY SKY/WX TMP DP RH WIND PRES REMARKS AHOSKIE N/A 75 61 61 CALM 29.87R CLINTON CLOUDY 77 66 69 S6 29.90S ELIZABETHTOWN CLOUDY 77 64 65 S8 29.90F GOLDSBORO MOSUNNY 79 64 60 S7 29.87R GREENVILLE CLOUDY 81 59 47 SW12 29.90R HAVELOCK CLEAR 76 62 62 SW13G23 29.93S KENANSVILLE CLOUDY 77 64 65 S5 29.90S KINSTON PTCLDY 79 61 53 SW8G16 29.89S NEW BERN PTCLDY 76 65 68 S9 29.92S RICHLANDS CLOUDY 77 63 61 S14 29.92R ROCKY MOUNT MOSUNNY 77 61 57 S10 29.87R WASHINGTON CLEAR 77 61 57 S10G18 29.89R WHITEVILLE CLOUDY 76 65 67 SE7 29.89F $$ AMZ130-135-150-152-154-156-158-170-250-252-270-ANZ085-086-088-633-658-670-280000- MARINE OBSERVATIONS STATION/POSITION TIME TEMP WIND PRES WAVE SWELL AIR SEA DIR/SP/G HT/PER HT/PER (UTC) (F) (DEG/KT/KT) (MB) (FT/S) (FT/S) CHESAPEAKE LIGHT NOT AVBL 64 E VA BEACH 2250 63 58 180/ 14/ 14 1013.0 5/ 9 3/ 9 DUCK 2248 78 59 200/ 18/ 22 1011.5 2 E DUCK 2230 63 N/A 4/ 8 2/12 OREGON INLET 2248 190/ 17/ 22 1013.1 13E OREGON INLT 2248 64 N/A 5/ 8 3/ 8 HATTERAS CG 2248 76 71 200/ 4/ 8 1013.5 DIAMOND BUOY 2250 78 77 220/ 23/ 27 1013.4 5/ 8 3/ 8 CAPE LOOKOUT 2300 73 210/ 9/ 11 1013.6 BEAUFORT LAB 2248 73 70 200/ 9/ 14 1013.0 30 SE NEW RVR IN 2208 74 220/ 10/ 14 1014.0 30 SE NEW RVR IN 2243 72 N/A 5/ 8 2/11 27 SE WRIGHTSVLE 2208 74 73 190/ 10/ 14 1013.3 5 SE WRIGHTSVLE 2208 72 72 200/ 8/ 12 1013.6 225 S CAPE HAT 2250 74 75 150/ 12/ 16 1016.9 5/ 8 3/ 8 41 SE CHARLESTON 2250 75 74 180/ 10/ 12 1013.1 4/ 6 3/ 6 $$

USA.gov is the U.S. government's official web portal to all federal, state and local government web resources and services.